[[{"header":{"parameterUnit":"m.s-1","parameterCategory":1,"la1":30.2991,"la2":30.254,"lo1":-89.0895,"lo2":-89.0444,"dy":0.0017,"dx":0.0017,"nx":28,"ny":28,"refTime":"2024-08-19T09:00:00:Z","depth":0,"parameterNumber":2,"parameterNumberName":"U-component_of_WINDS"},"data":[0,0,0,0,0,0,0,0,0,0,0,0,0,0,0,0,0,0,0,0,0,0,0,0,0,0,0,0,0,0,0,0,0,0,0,0,0,0,0,0,0,0,0,0,0,0,0,0,0,0,0,0,0,0,0,0,0,0,0.1572,0.1573,0,0.1703,0.1705,0.1706,0.1778,0.1778,0.1779,0.1779,0.1917,0.192,0.1923,0,0,0,0,0,0,0,0,0,0,0,0,0,0.1387,0.139,0.1572,0.1574,0.1575,0.1703,0.1705,0.1707,0.1778,0.1778,0.1779,0.1779,0.1915,0.192,0.1924,0,0,0,0,0,0,0,0,0,0,0,0,0,0.1488,0.1391,0.1572,0.1626,0.1632,0.1703,0.1705,0.1707,0.1778,0.1778,0.1779,0.1779,0.1914,0.1919,0.1924,0.1951,0,0,0.194,0.1943,0,0,0,0,0,0,0,0,0.1482,0.1494,0.1617,0.1623,0.163,0.1725,0.169,0.1789,0.1778,0.1723,0.1779,0.1779,0.1853,0.1863,0.1887,0.1958,0.1964,0.1941,0.1944,0.1946,0.1948,0,0,0,0,0,0,0,0.1475,0.1489,0.1624,0.1618,0.1626,0.1645,0.166,0.1709,0.1785,0.1728,0.1733,0.1748,0.1856,0.1882,0.1891,0.1966,0.1941,0.1945,0.1949,0.1951,0.2066,0.2066,0,0,0,0,0,0,0.1459,0.1483,0.162,0.1628,0.1555,0.1648,0.1665,0.1694,0.1784,0.1798,0.1747,0.175,0.1873,0.1885,0.1896,0.1934,0.1946,0.1951,0.1954,0.2066,0.2066,0.2066,0,0,0,0,0,0,0.1454,0.147,0.1615,0.1557,0.1577,0.1651,0.1683,0.1696,0.1722,0.1799,0.1813,0.1759,0.1873,0.1889,0.1937,0.194,0.1954,0.1958,0.2066,0.2066,0.2066,0.2009,0,0,0,0,0,0,0.1449,0.1468,0.1478,0.1557,0.158,0.1652,0.1684,0.1699,0.173,0.1736,0.1814,0.1827,0.1875,0.1929,0.1942,0.1947,0.1962,0.2067,0.2066,0.2066,0.2011,0.2007,0.2004,0,0,0,0,0,0.1442,0.1458,0.1478,0.1494,0.1593,0.1652,0.1665,0.1718,0.173,0.1742,0.1791,0.1825,0.1937,0.1933,0.1949,0.1955,0.2067,0.2066,0.2066,0.2013,0.2008,0.2004,0,0,0,0,0,0,0.1379,0.1469,0.1493,0.1534,0.1585,0.1664,0.168,0.1711,0.1761,0.1764,0.1829,0.1846,0.1888,0.1927,0.1921,0.1987,0.2006,0.2009,0.196,0.1956,0.1952,0.1941,0.1967,0,0,0,0,0,0.1369,0.1408,0.1485,0.1514,0.1538,0.1604,0.1632,0.1668,0.1724,0.1746,0.1799,0.1853,0.1901,0.193,0.1978,0.2018,0.2036,0.203,0.2026,0.2023,0.2024,0.2048,0.2047,0.2066,0.2066,0.2066,0,0,0.1351,0.1405,0.1425,0.1503,0.1546,0.1586,0.1622,0.1662,0.1693,0.1753,0.1801,0.1842,0.1907,0.195,0.1972,0.1984,0.2023,0.2022,0.2019,0.2023,0.2048,0.2046,0.2044,0.2065,0.2065,0.2066,0,0,0.1337,0.1381,0.141,0.1453,0.1518,0.1562,0.1569,0.1644,0.1673,0.1722,0.1768,0.1806,0.1887,0.1931,0.1963,0.1967,0.2,0.1981,0.1961,0.1984,0.1982,0.1981,0.1982,0.1982,0.1982,0.1982,0.1982,0,0.1305,0.1366,0.1421,0.1459,0.1492,0.1548,0.1578,0.1617,0.1695,0.1717,0.1729,0.1831,0.1878,0.1933,0.1934,0.1959,0.197,0.1972,0.1978,0.1977,0.1977,0.1979,0.1979,0.198,0.198,0.198,0.198,0,0.1324,0.1365,0.1381,0.1454,0.1489,0.1523,0.1585,0.1614,0.1648,0.1691,0.1742,0.18,0.1861,0.1877,0.1911,0.1937,0.1942,0.1965,0.1985,0.1972,0.1975,0.1976,0.1976,0.1977,0.1977,0.1978,0,0,0.1273,0.1376,0.1381,0.1414,0.1491,0.1524,0.1562,0.162,0.1644,0.1696,0.1729,0.1796,0.1818,0.1855,0.1895,0.1915,0.1914,0.1935,0.1938,0.1929,0.1947,0.1928,0.1928,0.1936,0.1937,0.1937,0.1941,0,0.1269,0.1337,0.1389,0.1437,0.1476,0.153,0.1563,0.1613,0.1655,0.1696,0.1743,0.1789,0.1814,0.1836,0.1859,0.1909,0.1918,0.191,0.1969,0.197,0.195,0.193,0.1911,0.1912,0.1943,0.1943,0.1943,0,0.1274,0.1323,0.1375,0.1447,0.1466,0.1494,0.1552,0.159,0.1649,0.1678,0.172,0.1761,0.1804,0.182,0.1881,0.1874,0.1901,0.193,0.1931,0.1938,0.1955,0.1936,0.1913,0.1913,0.1946,0.1945,0.1945,0,0.123,0.131,0.1351,0.1379,0.1464,0.1483,0.152,0.158,0.1612,0.1663,0.1685,0.1741,0.1772,0.1815,0.187,0.1877,0.1925,0.1946,0.1951,0.195,0.1958,0.1957,0.1939,0.1977,0.1977,0.1977,0.1977,0,0.1221,0.125,0.1333,0.1358,0.1393,0.1454,0.1487,0.1529,0.1582,0.1617,0.1668,0.17,0.1772,0.1814,0.1858,0.1901,0.1915,0.194,0.1951,0.1935,0.1932,0.1954,0.1955,0.1977,0.1977,0.1977,0.1977,0,0.1177,0.1234,0.1282,0.136,0.138,0.1402,0.1469,0.1497,0.1542,0.1586,0.16,0.167,0.1722,0.1782,0.1854,0.1883,0.1923,0.194,0.1902,0.1909,0.191,0.1909,0.1905,0.1907,0.1943,0.1943,0.1943,0,0.1167,0.1191,0.127,0.1297,0.1332,0.1375,0.1408,0.1469,0.1501,0.1571,0.159,0.1645,0.1693,0.1773,0.1831,0.1887,0.1905,0.19,0.1914,0.1897,0.1905,0.1902,0.1905,0.1896,0.1895,0.1895,0.1894,0,0.1142,0.1169,0.1213,0.1268,0.1306,0.1352,0.1401,0.142,0.1491,0.1525,0.1578,0.1615,0.1688,0.1742,0.1805,0.1845,0.1881,0.1889,0.1893,0.1877,0.1853,0.1866,0.1891,0.1889,0.189,0.189,0.189,0.189,0.1115,0.1138,0.1198,0.1246,0.1289,0.1334,0.1363,0.1412,0.1456,0.1519,0.1553,0.1605,0.1666,0.1754,0.1792,0.1835,0.1848,0.1853,0.1855,0.1855,0.185,0.1847,0.1847,0.1847,0.1847,0.1848,0.1848,0,0.1092,0.1133,0.1177,0.1243,0.1281,0.1312,0.1368,0.1398,0.1443,0.1496,0.1541,0.1602,0.1656,0.1718,0.1776,0.1798,0.1817,0.1811,0.181,0.1819,0.1836,0.1826,0.1795,0.1795,0.1795,0.1795,0.1795,0.1795,0.1084,0.1126,0.116,0.1224,0.1266,0.1316,0.1346,0.1387,0.143,0.1495,0.1539,0.158,0.1637,0.17,0.175,0.1768,0.1787,0.1776,0.1798,0.1813,0.1817,0.1822,0.1813,0.178,0.178,0.1778,0.1778,0.1777]},{"header":{"parameterUnit":"m.s-1","parameterCategory":1,"la1":30.2991,"la2":30.254,"lo1":-89.0895,"lo2":-89.0444,"dy":0.0017,"dx":0.0017,"nx":28,"ny":28,"refTime":"2024-08-19T09:00:00:Z","depth":0,"parameterNumber":3,"parameterNumberName":"V-component_of_WINDS"},"data":[0,0,0,0,0,0,0,0,0,0,0,0,0,0,0,0,0,0,0,0,0,0,0,0,0,0,0,0,0,0,0,0,0,0,0,0,0,0,0,0,0,0,0,0,0,0,0,0,0,0,0,0,0,0,0,0,0,0,-0.6061,-0.6061,0,-0.6066,-0.6066,-0.6066,-0.6164,-0.6166,-0.6169,-0.6171,-0.6171,-0.6168,-0.6166,0,0,0,0,0,0,0,0,0,0,0,0,0,-0.613,-0.6128,-0.6061,-0.6061,-0.6061,-0.6066,-0.6066,-0.6067,-0.6163,-0.6166,-0.6169,-0.6172,-0.6171,-0.6169,-0.6166,0,0,0,0,0,0,0,0,0,0,0,0,0,-0.6114,-0.6128,-0.6061,-0.611,-0.6114,-0.6066,-0.6066,-0.6067,-0.6163,-0.6166,-0.617,-0.6174,-0.6172,-0.6169,-0.6166,-0.6069,0,0,-0.6155,-0.6153,0,0,0,0,0,0,0,0,-0.6115,-0.6111,-0.6103,-0.6106,-0.6111,-0.6118,-0.6091,-0.6067,-0.6162,-0.6144,-0.6171,-0.6176,-0.615,-0.6148,-0.6141,-0.6069,-0.6069,-0.6154,-0.6152,-0.6151,-0.615,0,0,0,0,0,0,0,-0.6116,-0.6112,-0.6063,-0.6102,-0.6108,-0.6131,-0.6133,-0.6087,-0.6126,-0.6146,-0.6153,-0.6153,-0.6153,-0.6144,-0.6142,-0.6069,-0.6155,-0.6151,-0.6149,-0.6148,-0.5921,-0.5917,0,0,0,0,0,0,-0.6111,-0.6112,-0.6063,-0.6063,-0.6123,-0.6126,-0.6128,-0.6112,-0.6126,-0.6132,-0.615,-0.6157,-0.6148,-0.6146,-0.6142,-0.6032,-0.6151,-0.6148,-0.6146,-0.5925,-0.592,-0.5916,0,0,0,0,0,0,-0.6112,-0.6105,-0.6062,-0.6089,-0.6086,-0.6121,-0.6102,-0.611,-0.6102,-0.6129,-0.6136,-0.6134,-0.6151,-0.6147,-0.6088,-0.6034,-0.6146,-0.6143,-0.593,-0.5923,-0.5918,-0.581,0,0,0,0,0,0,-0.6113,-0.6105,-0.6069,-0.6088,-0.6084,-0.6008,-0.6099,-0.6108,-0.6096,-0.6106,-0.6116,-0.6121,-0.6154,-0.6092,-0.6084,-0.6031,-0.614,-0.5934,-0.5927,-0.592,-0.5819,-0.5801,-0.5786,0,0,0,0,0,-0.6115,-0.6036,-0.6067,-0.606,-0.604,-0.6005,-0.6002,-0.6043,-0.6091,-0.6056,-0.6074,-0.6121,-0.6041,-0.6085,-0.6077,-0.6022,-0.5938,-0.5929,-0.592,-0.5826,-0.5805,-0.5787,0,0,0,0,0,0,-0.6007,-0.6039,-0.6074,-0.5999,-0.5999,-0.6021,-0.5977,-0.6019,-0.6003,-0.6013,-0.6063,-0.6064,-0.5997,-0.6003,-0.6052,-0.5931,-0.5998,-0.5987,-0.5929,-0.5909,-0.5893,-0.5893,-0.6137,0,0,0,0,0,-0.5975,-0.5945,-0.5975,-0.5905,-0.5904,-0.594,-0.5926,-0.5959,-0.596,-0.5959,-0.5973,-0.5971,-0.5946,-0.5928,-0.5906,-0.582,-0.5825,-0.5778,-0.5762,-0.5749,-0.5739,-0.5697,-0.5677,-0.5887,-0.5887,-0.5887,0,0,-0.5907,-0.5921,-0.5899,-0.5884,-0.5888,-0.5856,-0.5939,-0.5901,-0.5877,-0.5953,-0.5899,-0.5909,-0.591,-0.5838,-0.5807,-0.5841,-0.5682,-0.5738,-0.5727,-0.5724,-0.5686,-0.5666,-0.5648,-0.5881,-0.5882,-0.5883,0,0,-0.5767,-0.5774,-0.572,-0.5723,-0.5729,-0.5754,-0.5741,-0.5758,-0.5769,-0.5716,-0.5773,-0.5745,-0.57,-0.57,-0.5693,-0.5558,-0.5601,-0.5549,-0.5464,-0.5423,-0.5407,-0.5392,-0.5346,-0.5328,-0.5539,-0.5538,-0.5538,0,-0.5681,-0.5637,-0.5685,-0.5644,-0.5637,-0.5707,-0.5652,-0.5652,-0.5649,-0.5642,-0.5681,-0.5629,-0.5634,-0.5564,-0.5532,-0.5523,-0.551,-0.5548,-0.5405,-0.5391,-0.5379,-0.5335,-0.5317,-0.5532,-0.5533,-0.5534,-0.5534,0,-0.5532,-0.55,-0.5455,-0.5455,-0.5442,-0.5393,-0.5434,-0.5415,-0.5449,-0.547,-0.5417,-0.5426,-0.5409,-0.5395,-0.5425,-0.533,-0.5352,-0.5397,-0.5466,-0.5352,-0.5311,-0.5295,-0.5523,-0.5525,-0.5527,-0.5529,0,0,-0.5322,-0.5352,-0.5335,-0.5337,-0.5351,-0.5327,-0.5282,-0.5268,-0.5252,-0.5248,-0.5213,-0.5175,-0.5219,-0.5211,-0.5243,-0.5207,-0.5102,-0.5257,-0.5258,-0.5229,-0.4999,-0.4966,-0.4945,-0.5131,-0.5128,-0.5126,-0.5,0,-0.5189,-0.5117,-0.5161,-0.5082,-0.5054,-0.5122,-0.5084,-0.5088,-0.5107,-0.5085,-0.5106,-0.5079,-0.5138,-0.5135,-0.5102,-0.5121,-0.5056,-0.5131,-0.5098,-0.5096,-0.5097,-0.4924,-0.4888,-0.4769,-0.4984,-0.4982,-0.498,0,-0.5023,-0.5017,-0.4936,-0.4959,-0.4949,-0.4913,-0.4906,-0.4885,-0.4891,-0.4908,-0.4902,-0.4944,-0.4902,-0.497,-0.4913,-0.4963,-0.4953,-0.4961,-0.4957,-0.4956,-0.5031,-0.4919,-0.4731,-0.4714,-0.4955,-0.4957,-0.4959,0,-0.488,-0.4851,-0.48,-0.4799,-0.4824,-0.4798,-0.4807,-0.4817,-0.4807,-0.48,-0.4795,-0.4781,-0.4774,-0.4763,-0.48,-0.4846,-0.4739,-0.481,-0.4752,-0.4751,-0.4726,-0.4727,-0.4535,-0.4717,-0.4718,-0.4718,-0.4718,0,-0.4727,-0.4675,-0.4737,-0.4705,-0.465,-0.4701,-0.4644,-0.466,-0.4669,-0.4642,-0.4699,-0.4671,-0.4722,-0.47,-0.4729,-0.4679,-0.4674,-0.4687,-0.4695,-0.4682,-0.4681,-0.4676,-0.4686,-0.4713,-0.4714,-0.4715,-0.4716,0,-0.4558,-0.4597,-0.4546,-0.4575,-0.4581,-0.4539,-0.4564,-0.4536,-0.4561,-0.4525,-0.452,-0.4557,-0.4535,-0.4572,-0.4551,-0.4571,-0.4503,-0.4523,-0.4501,-0.4508,-0.4448,-0.4454,-0.4247,-0.4223,-0.4419,-0.4417,-0.4416,0,-0.4458,-0.442,-0.4447,-0.4435,-0.4441,-0.4419,-0.4411,-0.446,-0.4448,-0.4455,-0.4426,-0.4409,-0.4398,-0.4358,-0.4383,-0.4369,-0.4391,-0.4319,-0.4388,-0.4378,-0.4391,-0.4394,-0.4391,-0.4305,-0.4302,-0.43,-0.4299,0,-0.4277,-0.43,-0.4286,-0.428,-0.427,-0.4266,-0.4267,-0.4253,-0.4306,-0.429,-0.4269,-0.4261,-0.4243,-0.4226,-0.4219,-0.4227,-0.4271,-0.4277,-0.4263,-0.425,-0.424,-0.4246,-0.4464,-0.4281,-0.4283,-0.4284,-0.4285,-0.4286,-0.4141,-0.4112,-0.4128,-0.4112,-0.4119,-0.4119,-0.4096,-0.4119,-0.4104,-0.4095,-0.4125,-0.4098,-0.4108,-0.4104,-0.4107,-0.4086,-0.4118,-0.4097,-0.4092,-0.4086,-0.4078,-0.4243,-0.4085,-0.4085,-0.4086,-0.4086,-0.4087,0,-0.3965,-0.398,-0.3965,-0.3966,-0.3954,-0.4,-0.4005,-0.3991,-0.3967,-0.3974,-0.3964,-0.3941,-0.3925,-0.395,-0.3939,-0.3917,-0.3938,-0.3913,-0.3915,-0.3917,-0.405,-0.4064,-0.3897,-0.3897,-0.3897,-0.3897,-0.3897,-0.3897,-0.3872,-0.3827,-0.3851,-0.3811,-0.3825,-0.3802,-0.3801,-0.3802,-0.3808,-0.3781,-0.377,-0.3787,-0.3802,-0.3793,-0.378,-0.3788,-0.3782,-0.375,-0.3765,-0.3888,-0.3907,-0.3925,-0.3938,-0.3748,-0.3747,-0.3634,-0.3633,-0.3632]}]]